Вернуться в каталог

TITAN 3C TRANSTAGE DEB

АктивенMEO
NORAD 38698·DEBRIS·🇺🇸 United States

Запущен Sep 26, 1968 с Cape Canaveral Space Force Station

Loading…

Ближайшие Пролёты (ближайшие 24 часа)

TLE

СвежийSource: Space-Track

Эпоха: Sep 14, 2026, 07:48 UTC

1 38698U 68081Y   26257.32542616 -.00000128  00000-0  00000-0 0  9990
2 38698   3.7373  69.9185 0216517 181.0878 179.2152  1.04403343 86702

Отслеживайте TITAN 3C TRANSTAGE DEB в реальном времени с AllMySat

Download on the App Store